Year,Month,Day,Hour,Minute,Value (Times are PST for temperature in C)
2017,09,14,00,00,11.40
2017,09,14,00,01,11.40
2017,09,14,00,02,11.30
2017,09,14,00,03,11.30
2017,09,14,00,04,11.30
2017,09,14,00,05,11.30
2017,09,14,00,06,11.30
2017,09,14,00,07,11.20
2017,09,14,00,08,11.20
2017,09,14,00,09,11.20
2017,09,14,00,10,11.20
2017,09,14,00,11,11.20
2017,09,14,00,12,11.10
2017,09,14,00,13,11.10
2017,09,14,00,14,11.10
2017,09,14,00,15,11.10
2017,09,14,00,16,11.00
2017,09,14,00,17,11.00
2017,09,14,00,18,11.00
2017,09,14,00,19,11.00
2017,09,14,00,20,10.90
2017,09,14,00,21,10.90
2017,09,14,00,22,10.90
2017,09,14,00,23,10.90
2017,09,14,00,24,10.90
2017,09,14,00,25,10.90
2017,09,14,00,26,10.90
2017,09,14,00,27,10.90
2017,09,14,00,28,10.90
2017,09,14,00,29,10.90
2017,09,14,00,30,10.80
2017,09,14,00,31,10.80
2017,09,14,00,32,10.80
2017,09,14,00,33,10.80
2017,09,14,00,34,10.80
2017,09,14,00,35,10.80
2017,09,14,00,36,10.80
2017,09,14,00,37,10.80
2017,09,14,00,38,10.80
2017,09,14,00,39,10.70
2017,09,14,00,40,10.70
2017,09,14,00,41,10.70
2017,09,14,00,42,10.70
2017,09,14,00,43,10.70
2017,09,14,00,44,10.70
2017,09,14,00,45,10.70
2017,09,14,00,46,10.70
2017,09,14,00,47,10.70
2017,09,14,00,48,10.70
2017,09,14,00,49,10.60
2017,09,14,00,50,10.60
2017,09,14,00,51,10.60
2017,09,14,00,52,10.60
2017,09,14,00,53,10.60
2017,09,14,00,54,10.60
2017,09,14,00,55,10.60
2017,09,14,00,56,10.60
2017,09,14,00,57,10.60
2017,09,14,00,58,10.60
2017,09,14,00,59,10.60
2017,09,14,01,00,10.60
2017,09,14,01,01,10.60
2017,09,14,01,02,10.60
2017,09,14,01,03,10.60
2017,09,14,01,04,10.60
2017,09,14,01,05,10.60
2017,09,14,01,06,10.60
2017,09,14,01,07,10.60
2017,09,14,01,08,10.60
2017,09,14,01,09,10.60
2017,09,14,01,10,10.60
2017,09,14,01,11,10.70
2017,09,14,01,12,10.70
2017,09,14,01,13,10.70
2017,09,14,01,14,10.70
2017,09,14,01,15,10.70
2017,09,14,01,16,10.70
2017,09,14,01,17,10.70
2017,09,14,01,18,10.70
2017,09,14,01,19,10.70
2017,09,14,01,20,10.70
2017,09,14,01,21,10.80
2017,09,14,01,22,10.80
2017,09,14,01,23,10.80
2017,09,14,01,24,10.80
2017,09,14,01,25,10.80
2017,09,14,01,26,10.90
2017,09,14,01,27,10.90
2017,09,14,01,28,10.90
2017,09,14,01,29,10.90
2017,09,14,01,30,10.90
2017,09,14,01,31,10.90
2017,09,14,01,32,11.00
2017,09,14,01,33,11.10
2017,09,14,01,34,11.20
2017,09,14,01,35,11.30
2017,09,14,01,36,11.40
2017,09,14,01,37,11.40
2017,09,14,01,38,11.50
2017,09,14,01,39,11.60
2017,09,14,01,40,11.70
2017,09,14,01,41,11.90
2017,09,14,01,42,12.00
2017,09,14,01,43,12.10
2017,09,14,01,44,12.20
2017,09,14,01,45,12.30
2017,09,14,01,46,12.40
2017,09,14,01,47,12.60
2017,09,14,01,48,12.70
2017,09,14,01,49,12.80
2017,09,14,01,50,12.90
2017,09,14,01,51,13.10
2017,09,14,01,52,13.20
2017,09,14,01,53,13.30
2017,09,14,01,54,13.50
2017,09,14,01,55,13.60
2017,09,14,01,56,13.70
2017,09,14,01,57,13.80
2017,09,14,01,58,13.90
2017,09,14,01,59,14.10
2017,09,14,02,00,14.20
2017,09,14,02,01,14.20
2017,09,14,02,02,14.30
2017,09,14,02,03,14.40
2017,09,14,02,04,14.40
2017,09,14,02,05,14.50
2017,09,14,02,06,14.60
2017,09,14,02,07,14.60
2017,09,14,02,08,14.70
2017,09,14,02,09,14.70
2017,09,14,02,10,14.80
2017,09,14,02,11,14.90
2017,09,14,02,12,14.90
2017,09,14,02,13,15.00
2017,09,14,02,14,15.00
2017,09,14,02,15,15.10
2017,09,14,02,16,15.10
2017,09,14,02,17,15.20
2017,09,14,02,18,15.20
2017,09,14,02,19,15.20
2017,09,14,02,20,15.20
2017,09,14,02,21,15.30
2017,09,14,02,22,15.30
2017,09,14,02,23,15.30
2017,09,14,02,24,15.30
2017,09,14,02,25,15.30
2017,09,14,02,26,15.40
2017,09,14,02,27,15.40
2017,09,14,02,28,15.40
2017,09,14,02,29,15.40
2017,09,14,02,30,15.40
2017,09,14,02,31,15.40
2017,09,14,02,32,15.40
2017,09,14,02,33,15.40
2017,09,14,02,34,15.50
2017,09,14,02,35,15.50
2017,09,14,02,36,15.50
2017,09,14,02,37,15.50
2017,09,14,02,38,15.60
2017,09,14,02,39,15.50
2017,09,14,02,40,15.50
2017,09,14,02,41,15.50
2017,09,14,02,42,15.50
2017,09,14,02,43,15.50
2017,09,14,02,44,15.50
2017,09,14,02,45,15.50
2017,09,14,02,46,15.40
2017,09,14,02,47,15.40
2017,09,14,02,48,15.40
2017,09,14,02,49,15.40
2017,09,14,02,50,15.40
2017,09,14,02,51,15.40
2017,09,14,02,52,15.40
2017,09,14,02,53,15.30
2017,09,14,02,54,15.30
2017,09,14,02,55,15.30
2017,09,14,02,56,15.30
2017,09,14,02,57,15.20
2017,09,14,02,58,15.20
2017,09,14,02,59,15.20
2017,09,14,03,00,15.10
2017,09,14,03,01,15.10
2017,09,14,03,02,15.10
2017,09,14,03,03,15.10
2017,09,14,03,04,15.10
2017,09,14,03,05,15.10
2017,09,14,03,06,15.10
2017,09,14,03,07,15.10
2017,09,14,03,08,15.10
2017,09,14,03,09,15.10
2017,09,14,03,10,15.10
2017,09,14,03,11,15.10
2017,09,14,03,12,15.10
2017,09,14,03,13,15.00
2017,09,14,03,14,15.00
2017,09,14,03,15,15.00
2017,09,14,03,16,15.00
2017,09,14,03,17,15.00
2017,09,14,03,18,14.90
2017,09,14,03,19,14.90
2017,09,14,03,20,14.90
2017,09,14,03,21,14.90
2017,09,14,03,22,14.90
2017,09,14,03,23,15.00
2017,09,14,03,24,15.00
2017,09,14,03,25,15.00
2017,09,14,03,26,15.10
2017,09,14,03,27,15.10
2017,09,14,03,28,15.10
2017,09,14,03,29,15.10
2017,09,14,03,30,15.20
2017,09,14,03,31,15.20
2017,09,14,03,32,15.20
2017,09,14,03,33,15.20
2017,09,14,03,34,15.20
2017,09,14,03,35,15.20
2017,09,14,03,36,15.20
2017,09,14,03,37,15.20
2017,09,14,03,38,15.20
2017,09,14,03,39,15.20
2017,09,14,03,40,15.20
2017,09,14,03,41,15.20
2017,09,14,03,42,15.20
2017,09,14,03,43,15.20
2017,09,14,03,44,15.20
2017,09,14,03,45,15.20
2017,09,14,03,46,15.20
2017,09,14,03,47,15.20
2017,09,14,03,48,15.20
2017,09,14,03,49,15.20
2017,09,14,03,50,15.20
2017,09,14,03,51,15.20
2017,09,14,03,52,15.20
2017,09,14,03,53,15.20
2017,09,14,03,54,15.20
2017,09,14,03,55,15.10
2017,09,14,03,56,15.10
2017,09,14,03,57,15.10
2017,09,14,03,58,15.10
2017,09,14,03,59,15.10
2017,09,14,04,00,15.00
2017,09,14,04,01,15.10
2017,09,14,04,02,15.00
2017,09,14,04,03,15.00
2017,09,14,04,04,15.00
2017,09,14,04,05,15.00
2017,09,14,04,06,15.00
2017,09,14,04,07,14.90
2017,09,14,04,08,14.90
2017,09,14,04,09,14.90
2017,09,14,04,10,14.80
2017,09,14,04,11,14.80
2017,09,14,04,12,14.80
2017,09,14,04,13,14.70
2017,09,14,04,14,14.70
2017,09,14,04,15,14.70
2017,09,14,04,16,14.70
2017,09,14,04,17,14.60
2017,09,14,04,18,14.60
2017,09,14,04,19,14.60
2017,09,14,04,20,14.70
2017,09,14,04,21,14.80
2017,09,14,04,22,14.90
2017,09,14,04,23,15.00
2017,09,14,04,24,15.10
2017,09,14,04,25,15.10
2017,09,14,04,26,15.20
2017,09,14,04,27,15.20
2017,09,14,04,28,15.10
2017,09,14,04,29,15.10
2017,09,14,04,30,15.10
2017,09,14,04,31,15.10
2017,09,14,04,32,15.00
2017,09,14,04,33,15.00
2017,09,14,04,34,15.00
2017,09,14,04,35,15.00
2017,09,14,04,36,15.00
2017,09,14,04,37,15.00
2017,09,14,04,38,15.00
2017,09,14,04,39,15.00
2017,09,14,04,40,14.90
2017,09,14,04,41,14.90
2017,09,14,04,42,14.90
2017,09,14,04,43,14.80
2017,09,14,04,44,14.80
2017,09,14,04,45,14.70
2017,09,14,04,46,14.70
2017,09,14,04,47,14.60
2017,09,14,04,48,14.60
2017,09,14,04,49,14.50
2017,09,14,04,50,14.50
2017,09,14,04,51,14.40
2017,09,14,04,52,14.40
2017,09,14,04,53,14.30
2017,09,14,04,54,14.30
2017,09,14,04,55,14.30
2017,09,14,04,56,14.30
2017,09,14,04,57,14.30
2017,09,14,04,58,14.30
2017,09,14,04,59,14.30
2017,09,14,05,00,14.30
2017,09,14,05,01,14.30
2017,09,14,05,02,14.20
2017,09,14,05,03,14.20
2017,09,14,05,04,14.20
2017,09,14,05,05,14.10
2017,09,14,05,06,14.10
2017,09,14,05,07,14.10
2017,09,14,05,08,14.10
2017,09,14,05,09,14.10
2017,09,14,05,10,14.10
2017,09,14,05,11,14.10
2017,09,14,05,12,14.10
2017,09,14,05,13,14.10
2017,09,14,05,14,14.20
2017,09,14,05,15,14.20
2017,09,14,05,16,14.20
2017,09,14,05,17,14.20
2017,09,14,05,18,14.20
2017,09,14,05,19,14.10
2017,09,14,05,20,14.10
2017,09,14,05,21,14.10
2017,09,14,05,22,14.10
2017,09,14,05,23,14.10
2017,09,14,05,24,14.10
2017,09,14,05,25,14.10
2017,09,14,05,26,14.10
2017,09,14,05,27,14.10
2017,09,14,05,28,14.10
2017,09,14,05,29,14.10
2017,09,14,05,30,14.10
2017,09,14,05,31,14.10
2017,09,14,05,32,14.20
2017,09,14,05,33,14.20
2017,09,14,05,34,14.20
2017,09,14,05,35,14.20
2017,09,14,05,36,14.20
2017,09,14,05,37,14.20
2017,09,14,05,38,14.10
2017,09,14,05,39,14.10
2017,09,14,05,40,14.10
2017,09,14,05,41,14.10
2017,09,14,05,42,14.00
2017,09,14,05,43,14.00
2017,09,14,05,44,13.90
2017,09,14,05,45,13.90
2017,09,14,05,46,13.90
2017,09,14,05,47,13.90
2017,09,14,05,48,13.90
2017,09,14,05,49,14.00
2017,09,14,05,50,14.00
2017,09,14,05,51,14.00
2017,09,14,05,52,14.10
2017,09,14,05,53,14.10
2017,09,14,05,54,14.10
2017,09,14,05,55,14.10
2017,09,14,05,56,14.20
2017,09,14,05,57,14.20
2017,09,14,05,58,14.20
2017,09,14,05,59,14.20
2017,09,14,06,00,14.20
2017,09,14,06,01,14.20
2017,09,14,06,02,14.20
2017,09,14,06,03,14.20
2017,09,14,06,04,14.20
2017,09,14,06,05,14.20
2017,09,14,06,06,14.20
2017,09,14,06,07,14.20
2017,09,14,06,08,14.20
2017,09,14,06,09,14.20
2017,09,14,06,10,14.30
2017,09,14,06,11,14.30
2017,09,14,06,12,14.30
2017,09,14,06,13,14.30
2017,09,14,06,14,14.30
2017,09,14,06,15,14.30
2017,09,14,06,16,14.30
2017,09,14,06,17,14.30
2017,09,14,06,18,14.30
2017,09,14,06,19,14.30
2017,09,14,06,20,14.30
2017,09,14,06,21,14.30
2017,09,14,06,22,14.30
2017,09,14,06,23,14.30
2017,09,14,06,24,14.30
2017,09,14,06,25,14.30
2017,09,14,06,26,14.30
2017,09,14,06,27,14.30
2017,09,14,06,28,14.30
2017,09,14,06,29,14.20
2017,09,14,06,30,14.20
2017,09,14,06,31,14.20
2017,09,14,06,32,14.20
2017,09,14,06,33,14.20
2017,09,14,06,34,14.20
2017,09,14,06,35,14.20
2017,09,14,06,36,14.20
2017,09,14,06,37,14.20
2017,09,14,06,38,14.20
2017,09,14,06,39,14.20
2017,09,14,06,40,14.10
2017,09,14,06,41,14.10
2017,09,14,06,42,14.10
2017,09,14,06,43,14.10
2017,09,14,06,44,14.10
2017,09,14,06,45,14.10
2017,09,14,06,46,14.10
2017,09,14,06,47,14.20
2017,09,14,06,48,14.20
2017,09,14,06,49,14.20
2017,09,14,06,50,14.20
2017,09,14,06,51,14.20
2017,09,14,06,52,14.20
2017,09,14,06,53,14.20
2017,09,14,06,54,14.20
2017,09,14,06,55,14.20
2017,09,14,06,56,14.20
2017,09,14,06,57,14.20
2017,09,14,06,58,14.20
2017,09,14,06,59,14.20
2017,09,14,07,00,14.20
2017,09,14,07,01,14.20
2017,09,14,07,02,14.20
2017,09,14,07,03,14.20
2017,09,14,07,04,14.20
2017,09,14,07,05,14.20
2017,09,14,07,06,14.20
2017,09,14,07,07,14.20
2017,09,14,07,08,14.20
2017,09,14,07,09,14.20
2017,09,14,07,10,14.30
2017,09,14,07,11,14.30
2017,09,14,07,12,14.30
2017,09,14,07,13,14.40
2017,09,14,07,14,14.40
2017,09,14,07,15,14.40
2017,09,14,07,16,14.50
2017,09,14,07,17,14.50
2017,09,14,07,18,14.60
2017,09,14,07,19,14.60
2017,09,14,07,20,14.60
2017,09,14,07,21,14.70
2017,09,14,07,22,14.70
2017,09,14,07,23,14.70
2017,09,14,07,24,14.70
2017,09,14,07,25,14.70
2017,09,14,07,26,14.80
2017,09,14,07,27,14.80
2017,09,14,07,28,14.80
2017,09,14,07,29,14.80
2017,09,14,07,30,14.80
2017,09,14,07,31,14.90
2017,09,14,07,32,14.90
2017,09,14,07,33,14.90
2017,09,14,07,34,15.00
2017,09,14,07,35,15.00
2017,09,14,07,36,15.10
2017,09,14,07,37,15.10
2017,09,14,07,38,15.10
2017,09,14,07,39,15.20
2017,09,14,07,40,15.20
2017,09,14,07,41,15.20
2017,09,14,07,42,15.20
2017,09,14,07,43,15.30
2017,09,14,07,44,15.30
2017,09,14,07,45,15.30
2017,09,14,07,46,15.30
2017,09,14,07,47,15.40
2017,09,14,07,48,15.40
2017,09,14,07,49,15.40
2017,09,14,07,50,15.40
2017,09,14,07,51,15.40
2017,09,14,07,52,15.40
2017,09,14,07,53,15.40
2017,09,14,07,54,15.40
2017,09,14,07,55,15.50
2017,09,14,07,56,15.50
2017,09,14,07,57,15.50
2017,09,14,07,58,15.60
2017,09,14,07,59,15.60
2017,09,14,08,00,15.60
2017,09,14,08,01,15.60
2017,09,14,08,02,15.60
2017,09,14,08,03,15.70
2017,09,14,08,04,15.70
2017,09,14,08,05,15.80
2017,09,14,08,06,15.80
2017,09,14,08,07,15.80
2017,09,14,08,08,15.80
2017,09,14,08,09,15.90
2017,09,14,08,10,15.90
2017,09,14,08,11,15.90
2017,09,14,08,12,15.90
2017,09,14,08,13,15.90
2017,09,14,08,14,15.90
2017,09,14,08,15,16.00
2017,09,14,08,16,16.00
2017,09,14,08,17,16.00
2017,09,14,08,18,16.00
2017,09,14,08,19,16.00
2017,09,14,08,20,16.00
2017,09,14,08,21,16.00
2017,09,14,08,22,16.00
2017,09,14,08,23,16.00
2017,09,14,08,24,16.00
2017,09,14,08,25,16.10
2017,09,14,08,26,16.10
2017,09,14,08,27,16.10
2017,09,14,08,28,16.10
2017,09,14,08,29,16.10
2017,09,14,08,30,16.20
2017,09,14,08,31,16.20
2017,09,14,08,32,16.20
2017,09,14,08,33,16.20
2017,09,14,08,34,16.20
2017,09,14,08,35,16.20
2017,09,14,08,36,16.30
2017,09,14,08,37,16.30
2017,09,14,08,38,16.30
2017,09,14,08,39,16.30
2017,09,14,08,40,16.30
2017,09,14,08,41,16.40
2017,09,14,08,42,16.40
2017,09,14,08,43,16.40
2017,09,14,08,44,16.40
2017,09,14,08,45,16.40
2017,09,14,08,46,16.40
2017,09,14,08,47,16.50
2017,09,14,08,48,16.50
2017,09,14,08,49,16.50
2017,09,14,08,50,16.50
2017,09,14,08,51,16.60
2017,09,14,08,52,16.60
2017,09,14,08,53,16.60
2017,09,14,08,54,16.60
2017,09,14,08,55,16.60
2017,09,14,08,56,16.60
2017,09,14,08,57,16.70
2017,09,14,08,58,16.70
2017,09,14,08,59,16.70
2017,09,14,09,00,16.80
2017,09,14,09,01,16.80
2017,09,14,09,02,16.80
2017,09,14,09,03,16.80
2017,09,14,09,04,16.80
2017,09,14,09,05,16.90
2017,09,14,09,06,16.90
2017,09,14,09,07,16.90
2017,09,14,09,08,16.90
2017,09,14,09,09,16.90
2017,09,14,09,10,16.90
2017,09,14,09,11,17.00
2017,09,14,09,12,17.00
2017,09,14,09,13,17.00
2017,09,14,09,14,17.10
2017,09,14,09,15,17.10
2017,09,14,09,16,17.20
2017,09,14,09,17,17.20
2017,09,14,09,18,17.20
2017,09,14,09,19,17.20
2017,09,14,09,20,17.20
2017,09,14,09,21,17.20
2017,09,14,09,22,17.20
2017,09,14,09,23,17.30
2017,09,14,09,24,17.30
2017,09,14,09,25,17.30
2017,09,14,09,26,17.30
2017,09,14,09,27,17.30
2017,09,14,09,28,17.40
2017,09,14,09,29,17.40
2017,09,14,09,30,17.40
2017,09,14,09,31,17.50
2017,09,14,09,32,17.50
2017,09,14,09,33,17.60
2017,09,14,09,34,17.60
2017,09,14,09,35,17.60
2017,09,14,09,36,17.70
2017,09,14,09,37,17.70
2017,09,14,09,38,17.70
2017,09,14,09,39,17.80
2017,09,14,09,40,17.80
2017,09,14,09,41,17.80
2017,09,14,09,42,17.90
2017,09,14,09,43,17.90
2017,09,14,09,44,17.90
2017,09,14,09,45,18.00
2017,09,14,09,46,18.00
2017,09,14,09,47,18.00
2017,09,14,09,48,18.10
2017,09,14,09,49,18.10
2017,09,14,09,50,18.10
2017,09,14,09,51,18.10
2017,09,14,09,52,18.10
2017,09,14,09,53,18.20
2017,09,14,09,54,18.20
2017,09,14,09,55,18.20
2017,09,14,09,56,18.30
2017,09,14,09,57,18.30
2017,09,14,09,58,18.30
2017,09,14,09,59,18.30
2017,09,14,10,00,18.40
2017,09,14,10,01,18.40
2017,09,14,10,02,18.40
2017,09,14,10,03,18.40
2017,09,14,10,04,18.40
2017,09,14,10,05,18.40
2017,09,14,10,06,18.40
2017,09,14,10,07,18.40
2017,09,14,10,08,18.40
2017,09,14,10,09,18.40
2017,09,14,10,10,18.40
2017,09,14,10,11,18.40
2017,09,14,10,12,18.40
2017,09,14,10,13,18.50
2017,09,14,10,14,18.50
2017,09,14,10,15,18.50
2017,09,14,10,16,18.50
2017,09,14,10,17,18.50
2017,09,14,10,18,18.50
2017,09,14,10,19,18.50
2017,09,14,10,20,18.50
2017,09,14,10,21,18.50
2017,09,14,10,22,18.60
2017,09,14,10,23,18.60
2017,09,14,10,24,18.70
2017,09,14,10,25,18.70
2017,09,14,10,26,18.70
2017,09,14,10,27,18.70
2017,09,14,10,28,18.80
2017,09,14,10,29,18.80
2017,09,14,10,30,18.80
2017,09,14,10,31,18.90
2017,09,14,10,32,18.90
2017,09,14,10,33,18.90
2017,09,14,10,34,18.90
2017,09,14,10,35,18.90
2017,09,14,10,36,18.90
2017,09,14,10,37,19.00
2017,09,14,10,38,19.00
2017,09,14,10,39,19.10
2017,09,14,10,40,19.10
2017,09,14,10,41,19.10
2017,09,14,10,42,19.10
2017,09,14,10,43,19.10
2017,09,14,10,44,19.10
2017,09,14,10,45,19.20
2017,09,14,10,46,19.20
2017,09,14,10,47,19.20
2017,09,14,10,48,19.20
2017,09,14,10,49,19.20
2017,09,14,10,50,19.20
2017,09,14,10,51,19.20
2017,09,14,10,52,19.20
2017,09,14,10,53,19.20
2017,09,14,10,54,19.20
2017,09,14,10,55,19.20
2017,09,14,10,56,19.30
2017,09,14,10,57,19.30
2017,09,14,10,58,19.30
2017,09,14,10,59,19.30
2017,09,14,11,00,19.30
2017,09,14,11,01,19.30
2017,09,14,11,02,19.20
2017,09,14,11,03,19.20
2017,09,14,11,04,19.20
2017,09,14,11,05,19.30
2017,09,14,11,06,19.30
2017,09,14,11,07,19.30
2017,09,14,11,08,19.30
2017,09,14,11,09,19.30
2017,09,14,11,10,19.40
2017,09,14,11,11,19.40
2017,09,14,11,12,19.40
2017,09,14,11,13,19.50
2017,09,14,11,14,19.50
2017,09,14,11,15,19.50
2017,09,14,11,16,19.50
2017,09,14,11,17,19.60
2017,09,14,11,18,19.60
2017,09,14,11,19,19.60
2017,09,14,11,20,19.60
2017,09,14,11,21,19.60
2017,09,14,11,22,19.60
2017,09,14,11,23,19.60
2017,09,14,11,24,19.60
2017,09,14,11,25,19.60
2017,09,14,11,26,19.60
2017,09,14,11,27,19.60
2017,09,14,11,28,19.70
2017,09,14,11,29,19.70
2017,09,14,11,30,19.70
2017,09,14,11,31,19.70
2017,09,14,11,32,19.70
2017,09,14,11,33,19.70
2017,09,14,11,34,19.70
2017,09,14,11,35,19.70
2017,09,14,11,36,19.70
2017,09,14,11,37,19.70
2017,09,14,11,38,19.70
2017,09,14,11,39,19.70
2017,09,14,11,40,19.70
2017,09,14,11,41,19.70
2017,09,14,11,42,19.70
2017,09,14,11,43,19.70
2017,09,14,11,44,19.70
2017,09,14,11,45,19.70
2017,09,14,11,46,19.70
2017,09,14,11,47,19.70
2017,09,14,11,48,19.80
2017,09,14,11,49,19.80
2017,09,14,11,50,19.90
2017,09,14,11,51,19.90
2017,09,14,11,52,19.90
2017,09,14,11,53,19.90
2017,09,14,11,54,19.90
2017,09,14,11,55,19.90
2017,09,14,11,56,19.90
2017,09,14,11,57,20.00
2017,09,14,11,58,20.00
2017,09,14,11,59,20.10
2017,09,14,12,00,20.10
2017,09,14,12,01,20.10
2017,09,14,12,02,20.10
2017,09,14,12,03,20.10
2017,09,14,12,04,20.10
2017,09,14,12,05,20.00
2017,09,14,12,06,20.10
2017,09,14,12,07,20.10
2017,09,14,12,08,20.10
2017,09,14,12,09,20.20
2017,09,14,12,10,20.20
2017,09,14,12,11,20.20
2017,09,14,12,12,20.20
2017,09,14,12,13,20.20
2017,09,14,12,14,20.20
2017,09,14,12,15,20.30
2017,09,14,12,16,20.20
2017,09,14,12,17,20.30
2017,09,14,12,18,20.20
2017,09,14,12,19,20.20
2017,09,14,12,20,20.20
2017,09,14,12,21,20.20
2017,09,14,12,22,20.20
2017,09,14,12,23,20.20
2017,09,14,12,24,20.30
2017,09,14,12,25,20.30
2017,09,14,12,26,20.30
2017,09,14,12,27,20.40
2017,09,14,12,28,20.40
2017,09,14,12,29,20.50
2017,09,14,12,30,20.60
2017,09,14,12,31,20.70
2017,09,14,12,32,20.70
2017,09,14,12,33,20.80
2017,09,14,12,34,20.80
2017,09,14,12,35,20.80
2017,09,14,12,36,20.90
2017,09,14,12,37,20.90
2017,09,14,12,38,20.80
2017,09,14,12,39,20.80
2017,09,14,12,40,20.80
2017,09,14,12,41,20.90
2017,09,14,12,42,21.00
2017,09,14,12,43,21.00
2017,09,14,12,44,21.10
2017,09,14,12,45,21.10
2017,09,14,12,46,21.10
2017,09,14,12,47,21.10
2017,09,14,12,48,21.10
2017,09,14,12,49,21.10
2017,09,14,12,50,21.10
2017,09,14,12,51,21.10
2017,09,14,12,52,21.10
2017,09,14,12,53,21.10
2017,09,14,12,54,21.20
2017,09,14,12,55,21.20
2017,09,14,12,56,21.20
2017,09,14,12,57,21.20
2017,09,14,12,58,21.30
2017,09,14,12,59,21.30
2017,09,14,13,00,21.20
2017,09,14,13,01,21.20
2017,09,14,13,02,21.20
2017,09,14,13,03,21.20
2017,09,14,13,04,21.20
2017,09,14,13,05,21.20
2017,09,14,13,06,21.20
2017,09,14,13,07,21.20
2017,09,14,13,08,21.20
2017,09,14,13,09,21.20
2017,09,14,13,10,21.20
2017,09,14,13,11,21.20
2017,09,14,13,12,21.30
2017,09,14,13,13,21.30
2017,09,14,13,14,21.40
2017,09,14,13,15,21.40
2017,09,14,13,16,21.50
2017,09,14,13,17,21.50
2017,09,14,13,18,21.60
2017,09,14,13,19,21.60
2017,09,14,13,20,21.60
2017,09,14,13,21,21.60
2017,09,14,13,22,21.60
2017,09,14,13,23,21.70
2017,09,14,13,24,21.70
2017,09,14,13,25,21.70
2017,09,14,13,26,21.70
2017,09,14,13,27,21.80
2017,09,14,13,28,21.80
2017,09,14,13,29,21.80
2017,09,14,13,30,21.80
2017,09,14,13,31,21.80
2017,09,14,13,32,21.80
2017,09,14,13,33,21.90
2017,09,14,13,34,21.90
2017,09,14,13,35,22.00
2017,09,14,13,36,22.00
2017,09,14,13,37,22.10
2017,09,14,13,38,22.10
2017,09,14,13,39,22.10
2017,09,14,13,40,22.10
2017,09,14,13,41,22.10
2017,09,14,13,42,22.00
2017,09,14,13,43,22.00
2017,09,14,13,44,22.00
2017,09,14,13,45,22.00
2017,09,14,13,46,22.00
2017,09,14,13,47,22.00
2017,09,14,13,48,22.00
2017,09,14,13,49,22.00
2017,09,14,13,50,22.00
2017,09,14,13,51,22.00
2017,09,14,13,52,22.00
2017,09,14,13,53,22.00
2017,09,14,13,54,22.10
2017,09,14,13,55,22.10
2017,09,14,13,56,22.20
2017,09,14,13,57,22.20
2017,09,14,13,58,22.20
2017,09,14,13,59,22.20
2017,09,14,14,00,22.20
2017,09,14,14,01,22.30
2017,09,14,14,02,22.30
2017,09,14,14,03,22.30
2017,09,14,14,04,22.40
2017,09,14,14,05,22.40
2017,09,14,14,06,22.30
2017,09,14,14,07,22.30
2017,09,14,14,08,22.20
2017,09,14,14,09,22.20
2017,09,14,14,10,22.20
2017,09,14,14,11,22.20
2017,09,14,14,12,22.20
2017,09,14,14,13,22.20
2017,09,14,14,14,22.30
2017,09,14,14,15,22.30
2017,09,14,14,16,22.40
2017,09,14,14,17,22.50
2017,09,14,14,18,22.50
2017,09,14,14,19,22.60
2017,09,14,14,20,22.60
2017,09,14,14,21,22.50
2017,09,14,14,22,22.50
2017,09,14,14,23,22.40
2017,09,14,14,24,22.40
2017,09,14,14,25,22.30
2017,09,14,14,26,22.30
2017,09,14,14,27,22.20
2017,09,14,14,28,22.20
2017,09,14,14,29,22.20
2017,09,14,14,30,22.20
2017,09,14,14,31,22.20
2017,09,14,14,32,22.20
2017,09,14,14,33,22.20
2017,09,14,14,34,22.30
2017,09,14,14,35,22.30
2017,09,14,14,36,22.40
2017,09,14,14,37,22.40
2017,09,14,14,38,22.50
2017,09,14,14,39,22.50
2017,09,14,14,40,22.50
2017,09,14,14,41,22.50
2017,09,14,14,42,22.50
2017,09,14,14,43,22.50
2017,09,14,14,44,22.50
2017,09,14,14,45,22.60
2017,09,14,14,46,22.60
2017,09,14,14,47,22.60
2017,09,14,14,48,22.60
2017,09,14,14,49,22.60
2017,09,14,14,50,22.60
2017,09,14,14,51,22.50
2017,09,14,14,52,22.50
2017,09,14,14,53,22.40
2017,09,14,14,54,22.50
2017,09,14,14,55,22.50
2017,09,14,14,56,22.60
2017,09,14,14,57,22.60
2017,09,14,14,58,22.60
2017,09,14,14,59,22.70
2017,09,14,15,00,22.70
2017,09,14,15,01,22.80
2017,09,14,15,02,22.80
2017,09,14,15,03,22.80
2017,09,14,15,04,22.70
2017,09,14,15,05,22.70
2017,09,14,15,06,22.70
2017,09,14,15,07,22.70
2017,09,14,15,08,22.70
2017,09,14,15,09,22.70
2017,09,14,15,10,22.70
2017,09,14,15,11,22.70
2017,09,14,15,12,22.70
2017,09,14,15,13,22.70
2017,09,14,15,14,22.80
2017,09,14,15,15,22.80
2017,09,14,15,16,22.90
2017,09,14,15,17,22.90
2017,09,14,15,18,22.90
2017,09,14,15,19,22.90
2017,09,14,15,20,22.90
2017,09,14,15,21,23.00
2017,09,14,15,22,23.00
2017,09,14,15,23,23.10
2017,09,14,15,24,23.20
2017,09,14,15,25,23.20
2017,09,14,15,26,23.30
2017,09,14,15,27,23.40
2017,09,14,15,28,23.40
2017,09,14,15,29,23.40
2017,09,14,15,30,23.30
2017,09,14,15,31,23.30
2017,09,14,15,32,23.30
2017,09,14,15,33,23.30
2017,09,14,15,34,23.20
2017,09,14,15,35,23.20
2017,09,14,15,36,23.10
2017,09,14,15,37,23.10
2017,09,14,15,38,23.10
2017,09,14,15,39,23.10
2017,09,14,15,40,23.10
2017,09,14,15,41,23.20
2017,09,14,15,42,23.20
2017,09,14,15,43,23.20
2017,09,14,15,44,23.20
2017,09,14,15,45,23.20
2017,09,14,15,46,23.20
2017,09,14,15,47,23.20
2017,09,14,15,48,23.20
2017,09,14,15,49,23.20
2017,09,14,15,50,23.30
2017,09,14,15,51,23.30
2017,09,14,15,52,23.30
2017,09,14,15,53,23.40
2017,09,14,15,54,23.40
2017,09,14,15,55,23.40
2017,09,14,15,56,23.40
2017,09,14,15,57,23.40
2017,09,14,15,58,23.40
2017,09,14,15,59,23.40
2017,09,14,16,00,23.30
2017,09,14,16,01,23.30
2017,09,14,16,02,23.30
2017,09,14,16,03,23.30
2017,09,14,16,04,23.30
2017,09,14,16,05,23.30
2017,09,14,16,06,23.40
2017,09,14,16,07,23.40
2017,09,14,16,08,23.40
2017,09,14,16,09,23.40
2017,09,14,16,10,23.40
2017,09,14,16,11,23.30
2017,09,14,16,12,23.40
2017,09,14,16,13,23.40
2017,09,14,16,14,23.50
2017,09,14,16,15,23.50
2017,09,14,16,16,23.60
2017,09,14,16,17,23.60
2017,09,14,16,18,23.60
2017,09,14,16,19,23.60
2017,09,14,16,20,23.70
2017,09,14,16,21,23.70
2017,09,14,16,22,23.70
2017,09,14,16,23,23.70
2017,09,14,16,24,23.70
2017,09,14,16,25,23.70
2017,09,14,16,26,23.70
2017,09,14,16,27,23.70
2017,09,14,16,28,23.70
2017,09,14,16,29,23.70
2017,09,14,16,30,23.70
2017,09,14,16,31,23.70
2017,09,14,16,32,23.70
2017,09,14,16,33,23.70
2017,09,14,16,34,23.70
2017,09,14,16,35,23.70
2017,09,14,16,36,23.70
2017,09,14,16,37,23.70
2017,09,14,16,38,23.70
2017,09,14,16,39,23.70
2017,09,14,16,40,23.70
2017,09,14,16,41,23.70
2017,09,14,16,42,23.70
2017,09,14,16,43,23.70
2017,09,14,16,44,23.70
2017,09,14,16,45,23.70
2017,09,14,16,46,23.70
2017,09,14,16,47,23.60
2017,09,14,16,48,23.60
2017,09,14,16,49,23.60
2017,09,14,16,50,23.60
2017,09,14,16,51,23.60
2017,09,14,16,52,23.70
2017,09,14,16,53,23.70
2017,09,14,16,54,23.70
2017,09,14,16,55,23.70
2017,09,14,16,56,23.70
2017,09,14,16,57,23.80
2017,09,14,16,58,23.70
2017,09,14,16,59,23.70
2017,09,14,17,00,23.70
2017,09,14,17,01,23.70
2017,09,14,17,02,23.70
2017,09,14,17,03,23.70
2017,09,14,17,04,23.70
2017,09,14,17,05,23.70
2017,09,14,17,06,23.70
2017,09,14,17,07,23.70
2017,09,14,17,08,23.70
2017,09,14,17,09,23.70
2017,09,14,17,10,23.70
2017,09,14,17,11,23.70
2017,09,14,17,12,23.70
2017,09,14,17,13,23.70
2017,09,14,17,14,23.80
2017,09,14,17,15,23.80
2017,09,14,17,16,23.80
2017,09,14,17,17,23.80
2017,09,14,17,18,23.80
2017,09,14,17,19,23.80